When you browse on this site, cookies collect data to enhance your experience and personalize the content and advertising you see.
Visit our Privacy Policy to learn more. By continuing to use the site, you agree to this use of cookies and data.
  • Em Portugal
  • Lista de países
  • Para 7 dias
  • Temperatura da água
  • Mapa do tempo
  • Widgets de tempo
  • user-avatar
    Iniciar Sessão

    Previsão horária em Pogoreloe

    Hoje, 24 Janeiro, Sexta-feira

    Tempo Temperatura Precipitação Vento Pressão Humidade
    00:00 -5°C° 0 mm 3 m/s 735 mmHg 79%
    01:00 -5°C° 0 mm 4 m/s 735 mmHg 84%
    02:00 -5°C° 0 mm 4 m/s 734 mmHg 89%
    03:00 -4°C° 0 mm 4 m/s 733 mmHg 88%
    04:00 -5°C° 0 mm 5 m/s 732 mmHg 87%
    05:00 -5°C° 0 mm 5 m/s 731 mmHg 86%
    06:00 -4°C° 0.3 mm 5 m/s 731 mmHg 89%
    07:00 -4°C° 0.3 mm 5 m/s 730 mmHg 92%
    08:00 -4°C° 0.3 mm 5 m/s 729 mmHg 95%
    09:00 -2°C° 0.1 mm 5 m/s 729 mmHg 94%
    10:00 -1°C° 0.1 mm 4 m/s 729 mmHg 93%
    11:00 0°C° 0.1 mm 4 m/s 728 mmHg 92%
    12:00 0°C° 0.1 mm 5 m/s 728 mmHg 92%
    13:00 0°C° 0.1 mm 5 m/s 727 mmHg 92%
    14:00 +1°C° 0.1 mm 5 m/s 726 mmHg 93%
    15:00 +1°C° 0.2 mm 5 m/s 726 mmHg 93%
    16:00 -1°C° 0.2 mm 6 m/s 726 mmHg 93%
    17:00 -1°C° 0.2 mm 6 m/s 726 mmHg 93%
    18:00 0°C° 0 mm 5 m/s 726 mmHg 93%
    19:00 0°C° 0 mm 5 m/s 726 mmHg 93%
    20:00 -1°C° 0 mm 4 m/s 727 mmHg 93%
    21:00 -1°C° 0 mm 4 m/s 727 mmHg 93%
    22:00 -1°C° 0 mm 3 m/s 726 mmHg 94%
    23:00 -1°C° 0 mm 3 m/s 726 mmHg 95%

    Amanhã, 25 Janeiro, Sábado

    Tempo Temperatura Precipitação Vento Pressão Humidade
    00:00 -1°C° 0.1 mm 3 m/s 726 mmHg 94%
    01:00 -1°C° 0.1 mm 3 m/s 726 mmHg 93%
    02:00 -1°C° 0.1 mm 3 m/s 726 mmHg 93%
    03:00 -2°C° 0 mm 4 m/s 726 mmHg 90%
    04:00 -2°C° 0 mm 4 m/s 726 mmHg 87%
    05:00 -1°C° 0 mm 5 m/s 726 mmHg 85%
    06:00 -2°C° 0 mm 5 m/s 725 mmHg 86%
    07:00 -2°C° 0 mm 5 m/s 725 mmHg 88%
    08:00 -3°C° 0 mm 6 m/s 725 mmHg 89%
    09:00 -3°C° 0.2 mm 6 m/s 725 mmHg 82%
    10:00 -2°C° 0.2 mm 7 m/s 724 mmHg 75%
    11:00 -2°C° 0.2 mm 8 m/s 724 mmHg 68%
    12:00 -3°C° 0.2 mm 7 m/s 724 mmHg 67%
    13:00 -3°C° 0.2 mm 7 m/s 725 mmHg 66%
    14:00 -3°C° 0.2 mm 7 m/s 725 mmHg 65%
    15:00 -4°C° 0 mm 7 m/s 725 mmHg 68%
    16:00 -4°C° 0 mm 6 m/s 726 mmHg 70%
    17:00 -5°C° 0 mm 6 m/s 726 mmHg 73%
    18:00 -5°C° 0.1 mm 6 m/s 727 mmHg 77%
    19:00 -5°C° 0.1 mm 6 m/s 727 mmHg 81%
    20:00 -6°C° 0.1 mm 7 m/s 728 mmHg 85%
    21:00 -6°C° 0.1 mm 7 m/s 728 mmHg 83%
    22:00 -6°C° 0.1 mm 7 m/s 729 mmHg 81%
    23:00 -6°C° 0.1 mm 7 m/s 730 mmHg 79%

    Depois de amanhã, 26 Janeiro, Domingo

    Tempo Temperatura Precipitação Vento Pressão Humidade
    00:00 -5°C° 0 mm 6 m/s 731 mmHg 78%
    01:00 -6°C° 0 mm 6 m/s 732 mmHg 77%
    02:00 -6°C° 0 mm 5 m/s 732 mmHg 75%
    03:00 -6°C° 0 mm 5 m/s 733 mmHg 76%
    04:00 -6°C° 0 mm 5 m/s 734 mmHg 77%
    05:00 -5°C° 0 mm 4 m/s 735 mmHg 77%
    06:00 -5°C° 0 mm 4 m/s 735 mmHg 78%
    07:00 -7°C° 0 mm 4 m/s 736 mmHg 80%
    08:00 -6°C° 0 mm 3 m/s 736 mmHg 81%
    09:00 -5°C° 0 mm 4 m/s 737 mmHg 79%
    10:00 -5°C° 0 mm 4 m/s 737 mmHg 77%
    11:00 -4°C° 0 mm 4 m/s 738 mmHg 74%
    12:00 -4°C° 0 mm 4 m/s 737 mmHg 72%
    13:00 -3°C° 0 mm 4 m/s 737 mmHg 69%
    14:00 -3°C° 0 mm 4 m/s 737 mmHg 66%
    15:00 -3°C° 0.1 mm 4 m/s 737 mmHg 75%
    16:00 -4°C° 0.1 mm 5 m/s 736 mmHg 83%
    17:00 -5°C° 0.1 mm 5 m/s 736 mmHg 92%
    18:00 -4°C° 0.3 mm 5 m/s 735 mmHg 93%
    19:00 -2°C° 0.3 mm 5 m/s 735 mmHg 95%
    20:00 -1°C° 0.3 mm 5 m/s 735 mmHg 96%
    21:00 -1°C° 0.2 mm 5 m/s 734 mmHg 96%
    22:00 0°C° 0.2 mm 5 m/s 734 mmHg 96%
    23:00 +1°C° 0.2 mm 5 m/s 734 mmHg 96%

    27 Janeiro, Segunda-feira

    Tempo Temperatura Precipitação Vento Pressão Humidade
    00:00 +1°C° 0.4 mm 5 m/s 734 mmHg 95%
    01:00 +1°C° 0.4 mm 5 m/s 734 mmHg 95%
    02:00 +1°C° 0.4 mm 5 m/s 734 mmHg 94%
    03:00 +1°C° 0.3 mm 4 m/s 735 mmHg 95%
    04:00 +1°C° 0.3 mm 4 m/s 735 mmHg 96%
    05:00 0°C° 0.3 mm 4 m/s 735 mmHg 96%
    06:00 0°C° 0.1 mm 4 m/s 735 mmHg 96%
    07:00 0°C° 0.1 mm 4 m/s 735 mmHg 96%
    08:00 0°C° 0.1 mm 4 m/s 735 mmHg 96%
    09:00 0°C° 0.2 mm 4 m/s 735 mmHg 96%
    10:00 0°C° 0.2 mm 4 m/s 736 mmHg 97%
    11:00 +1°C° 0.2 mm 3 m/s 736 mmHg 97%
    12:00 +1°C° 0.1 mm 3 m/s 736 mmHg 97%
    13:00 +1°C° 0.1 mm 3 m/s 736 mmHg 97%
    14:00 +1°C° 0.1 mm 3 m/s 735 mmHg 97%
    15:00 +1°C° 0.1 mm 3 m/s 735 mmHg 97%
    16:00 +2°C° 0.1 mm 2 m/s 736 mmHg 97%
    17:00 +1°C° 0.1 mm 2 m/s 736 mmHg 98%
    18:00 +1°C° 0.2 mm 2 m/s 735 mmHg 98%
    19:00 +1°C° 0.2 mm 2 m/s 735 mmHg 98%
    20:00 +1°C° 0.2 mm 2 m/s 735 mmHg 98%
    21:00 +1°C° 0.2 mm 2 m/s 735 mmHg 98%
    22:00 +1°C° 0.2 mm 2 m/s 735 mmHg 97%
    23:00 0°C° 0.2 mm 3 m/s 735 mmHg 97%

    28 Janeiro, Terça-feira

    Tempo Temperatura Precipitação Vento Pressão Humidade
    00:00 +1°C° 0.1 mm 2 m/s 735 mmHg 97%
    01:00 +1°C° 0.1 mm 2 m/s 735 mmHg 97%
    02:00 +1°C° 0.1 mm 2 m/s 734 mmHg 97%
    03:00 +1°C° 0.2 mm 2 m/s 734 mmHg 97%
    04:00 -1°C° 0.2 mm 2 m/s 734 mmHg 98%
    05:00 -1°C° 0.2 mm 2 m/s 734 mmHg 98%
    06:00 -1°C° 0.1 mm 2 m/s 733 mmHg 98%
    07:00 -1°C° 0.1 mm 2 m/s 733 mmHg 97%
    08:00 -1°C° 0.1 mm 2 m/s 733 mmHg 97%
    09:00 -1°C° 0.1 mm 2 m/s 733 mmHg 97%
    10:00 -1°C° 0.1 mm 2 m/s 733 mmHg 97%
    11:00 -1°C° 0.1 mm 2 m/s 733 mmHg 96%
    12:00 -1°C° 0.1 mm 2 m/s 732 mmHg 96%
    13:00 -1°C° 0.1 mm 2 m/s 732 mmHg 96%
    14:00 -1°C° 0.1 mm 2 m/s 732 mmHg 97%
    15:00 -1°C° 0.1 mm 2 m/s 732 mmHg 96%
    16:00 -1°C° 0.1 mm 2 m/s 731 mmHg 96%
    17:00 -1°C° 0.1 mm 2 m/s 731 mmHg 95%
    18:00 -1°C° 0 mm 3 m/s 731 mmHg 95%
    19:00 -1°C° 0 mm 3 m/s 731 mmHg 95%
    20:00 -1°C° 0 mm 3 m/s 730 mmHg 94%
    21:00 -1°C° 0.1 mm 3 m/s 730 mmHg 95%
    22:00 0°C° 0.1 mm 3 m/s 729 mmHg 96%
    23:00 -1°C° 0.1 mm 4 m/s 729 mmHg 96%

    29 Janeiro, Quarta-feira

    Tempo Temperatura Precipitação Vento Pressão Humidade
    00:00 0°C° 0 mm 4 m/s 728 mmHg 95%
    01:00 0°C° 0 mm 4 m/s 727 mmHg 93%
    02:00 0°C° 0 mm 5 m/s 727 mmHg 92%
    03:00 0°C° 0.6 mm 5 m/s 726 mmHg 93%
    04:00 -1°C° 0.6 mm 6 m/s 725 mmHg 95%
    05:00 -1°C° 0.6 mm 6 m/s 725 mmHg 96%
    06:00 -1°C° 0.5 mm 5 m/s 725 mmHg 94%
    07:00 -1°C° 0.5 mm 4 m/s 725 mmHg 91%
    08:00 -1°C° 0.5 mm 4 m/s 725 mmHg 89%
    09:00 -1°C° 0 mm 4 m/s 726 mmHg 87%
    10:00 -1°C° 0 mm 5 m/s 726 mmHg 84%
    11:00 -1°C° 0 mm 5 m/s 727 mmHg 81%
    12:00 -1°C° 0 mm 5 m/s 727 mmHg 84%
    13:00 -1°C° 0 mm 5 m/s 727 mmHg 86%
    14:00 -1°C° 0 mm 5 m/s 727 mmHg 88%
    15:00 -1°C° 0 mm 5 m/s 727 mmHg 86%
    16:00 -2°C° 0 mm 4 m/s 727 mmHg 85%
    17:00 -2°C° 0 mm 4 m/s 728 mmHg 83%
    18:00 -2°C° 0 mm 4 m/s 727 mmHg 82%
    19:00 -1°C° 0 mm 5 m/s 727 mmHg 82%
    20:00 -1°C° 0 mm 5 m/s 727 mmHg 81%
    21:00 -1°C° 0 mm 5 m/s 727 mmHg 82%
    22:00 -1°C° 0 mm 5 m/s 727 mmHg 82%
    23:00 -1°C° 0 mm 5 m/s 727 mmHg 83%
    Mostrar mais